,

(GMT )
Al Udeid

Weather History for KQIR - March, 2013

Change the Weather History Date:

Thursday, March 14, 2013

  Actual Average Record
Temperature  
Mean Temperature 73 °F -  
Max Temperature 89 °F - - ()
Min Temperature 57 °F - - ()
Cooling Degree Days 8    
Growing Degree Days 23 (Base 50)    
Moisture  
Dew Point 47 °F    
Average Humidity 42    
Maximum Humidity 73    
Minimum Humidity 20    
Precipitation  
Precipitation 0.00 in - - ()
Sea Level Pressure  
Sea Level Pressure 29.98 in    
Wind  
Wind Speed 7 mph ()    
Max Wind Speed 16 mph    
Max Gust Speed 22 mph    
Visibility 6.2 miles    
Events      
Averages and records for this station are not official NWS values.
T = Trace of Precipitation, MM = Missing Value Source: Averaged Metar Reports

Daily Weather History Graph

Daily Weather History Graph

Search for Another Location

Airport or City:

Trip Planner

Search our weather history database for the weather conditions in past years. The results will help you decide how hot, cold, wet, or windy it might be!

Date:

Astronomy

Mar. 14, 2013 Rise Set
Actual Time 5:44 AM AST 5:43 PM AST
Civil Twilight 5:22 AM AST 6:06 PM AST
Nautical Twilight 4:55 AM AST 6:32 PM AST
Astronomical Twilight 4:29 AM AST 6:59 PM AST
Moon 7:04 AM AST (3/14) 8:13 PM AST (3/14)
Length of Visible Light 12h 43m
Length of Day
11h 58m
Waxing Crescent, 7% of the Moon is Illuminated
Mar 14
Waxing Crescent
Mar 19
First Quarter
Mar 27
Full
Apr 3
Last Quarter
Apr 10
New

Hourly Weather History & Observations

Time (AST) Temp. Dew Point Humidity Pressure Visibility Wind Dir Wind Speed Gust Speed Precip Events Conditions
12:55 AM 59.9 °F 44.4 °F 57% 29.97 in 6.2 mi WSW 3.5 mph - N/A   Clear
1:55 AM 59.0 °F 44.6 °F 59% 29.96 in 6.2 mi WNW 3.5 mph - N/A   Clear
2:55 AM 58.1 °F 43.5 °F 58% 29.95 in 6.2 mi West 6.9 mph - N/A   Clear
3:55 AM 57.6 °F 47.1 °F 68% 29.95 in 6.2 mi West 9.2 mph - N/A   Clear
4:55 AM 59.4 °F 50.5 °F 73% 29.96 in 6.2 mi WNW 6.9 mph - N/A   Clear
5:55 AM 57.7 °F 49.3 °F 73% 29.98 in 6.2 mi WNW 9.2 mph - N/A   Clear
6:55 AM 63.5 °F 50.7 °F 63% 30.00 in 6.2 mi WNW 11.5 mph - N/A   Clear
7:55 AM 69.8 °F 50.4 °F 50% 30.02 in 6.2 mi NW 12.7 mph - N/A   Clear
8:55 AM 75.7 °F 48.9 °F 39% 30.03 in 6.2 mi NNW 15.0 mph - N/A   Partly Cloudy
9:55 AM 79.7 °F 47.5 °F 32% 30.04 in 6.2 mi NNW 10.4 mph - N/A   Partly Cloudy
10:55 AM 82.9 °F 47.1 °F 29% 30.02 in 6.2 mi NNW 12.7 mph - N/A   Scattered Clouds
11:03 AM 84.2 °F 46.4 °F 27% 30.01 in 6.2 mi North 13.8 mph - N/A   Light Drizzle
11:12 AM 84.2 °F 46.4 °F 27% 30.01 in 6.2 mi North 16.1 mph 21.9 mph N/A   Scattered Clouds
11:55 AM 86.5 °F 45.1 °F 24% 29.99 in 6.2 mi North 12.7 mph - 0.00 in   Scattered Clouds
12:55 PM 88.3 °F 44.4 °F 22% 29.96 in 6.2 mi NNE 11.5 mph 20.7 mph N/A   Scattered Clouds
1:55 PM 89.2 °F 42.6 °F 20% 29.94 in 6.2 mi North 13.8 mph 20.7 mph N/A   Clear
2:55 PM 88.9 °F 46.0 °F 23% 29.94 in 6.2 mi NE 13.8 mph - N/A   Clear
3:55 PM 84.7 °F 47.7 °F 27% 29.95 in 6.2 mi NE 12.7 mph - N/A   Clear
4:55 PM 82.2 °F 46.6 °F 29% 29.96 in 6.2 mi NE 9.2 mph - N/A   Clear
5:55 PM 79.7 °F 46.4 °F 31% 29.97 in 6.2 mi NE 8.1 mph - N/A   Clear
6:55 PM 76.8 °F 49.1 °F 38% 29.98 in 6.2 mi NE 5.8 mph - N/A   Clear
7:55 PM 75.2 °F 49.5 °F 40% 30.00 in 6.2 mi NE 3.5 mph - N/A   Clear
8:55 PM 72.5 °F 48.0 °F 42% 30.01 in 6.2 mi NNE 3.5 mph - N/A   Clear
9:55 PM 70.3 °F 46.9 °F 43% 30.01 in 6.2 mi Calm Calm - N/A   Clear
11:55 PM 63.3 °F 45.5 °F 52% 30.00 in 6.2 mi Calm Calm - N/A   Clear